Location: *
(50.3440°N, 18.6237°E)
Time: 18:13:56
(UTC+00:00)

Meteor 2-6 Rocket - Pass Details

Date: 30 November 2020
Orbit: 806 x 914 km, 81.3° (Epoch: 18 January)

Event Time Altitude Azimuth Distance (km) Brightness Sun altitude
Rises 17:35:31 0° 196° (SSW) 3,410 7.6 -26.2°
Reaches altitude 10° 17:37:57 10° 199° (SSW) 2,462 6.8 -26.6°
Maximum altitude 17:43:31 72° 283° (WNW) 873 4.3 -27.5°
Enters shadow 17:45:40 38° 359° (N) 1,247 5.0 -27.8°
